GW1109 Weather Reports


time (UTC)temp
C
wind
direction
speed
KPH
gust
KPH
rain 1hr
cm
rain 24hr
cm
rain mn
cm
humidity
%
barometer
mb
20260505223056 22 227 8.0 22.5 0.00 0.00 0.00 42 1004.5
20260505221547 23 200 8.0 20.9 0.00 0.00 0.00 41 1004.1
20260505220048 23 146 8.0 22.5 0.00 0.00 0.00 40 1003.8
20260505214544 23 182 11.3 30.6 0.00 0.00 0.00 39 1003.8
20260505213052 24 190 8.0 30.6 0.00 0.00 0.00 37 1003.7
20260505211540 23 170 11.3 25.7 0.00 0.00 0.00 39 1003.5
20260505210047 23 211 8.0 25.7 0.00 0.00 0.00 40 1003.5
20260505204545 23 206 12.9 37.0 0.00 0.00 0.00 40 1003.4
20260505203051 24 165 11.3 25.7 0.00 0.00 0.00 39 1003.4
20260505201544 25 177 12.9 37.0 0.00 0.00 0.00 36 1003.6
20260505200047 25 175 12.9 29.0 0.00 0.00 0.00 36 1003.7
20260505194600 26 209 12.9 35.4 0.00 0.00 0.00 30 1003.7
20260505193045 26 211 24.1 46.7 0.00 0.00 0.00 31 1003.9
20260505191547 26 185 19.3 41.8 0.00 0.00 0.00 30 1004.1
20260505190046 25 189 16.1 35.4 0.00 0.00 0.00 32 1004.3
20260505184541 25 246 16.1 37.0 0.00 0.00 0.00 33 1004.6
20260505183056 25 212 12.9 32.2 0.00 0.00 0.00 34 1004.8
20260505181545 25 205 16.1 35.4 0.00 0.00 0.00 33 1004.9
20260505180049 26 219 25.7 45.1 0.00 0.00 0.00 34 1004.9
20260505174548 25 229 19.3 43.5 0.00 0.00 0.00 33 1005.2
20260505173051 25 192 19.3 45.1 0.00 0.00 0.00 34 1005.3
20260505171548 25 198 17.7 40.2 0.00 0.00 0.00 35 1005.7
20260505170047 24 230 11.3 30.6 0.00 0.00 0.00 38 1005.9
20260505164558 24 246 16.1 35.4 0.00 0.00 0.00 37 1006.3
20260505163053 24 261 19.3 38.6 0.00 0.00 0.00 38 1006.7
20260505161544 23 270 14.5 30.6 0.00 0.00 0.00 40 1006.6
20260505153105 22 180 11.3 32.2 0.00 0.00 0.00 44 1007.7
20260505151553 21 242 12.9 27.4 0.00 0.00 0.00 44 1007.9
20260505140104 17 206 11.3 24.1 0.00 0.00 0.00 55 1008.0
20260505124547 15 217 16.1 27.4 0.00 0.00 0.00 59 1008.5
20260505123045 15 246 14.5 30.6 0.00 0.00 0.00 58 1008.3
20260505121544 14 205 12.9 22.5 0.00 0.00 0.00 60 1008.0
20260505120049 13 236 11.3 20.9 0.00 0.00 0.00 61 1007.9
20260505114548 13 238 6.4 14.5 0.00 0.00 0.00 62 1008.2
20260505113047 12 240 4.8 16.1 0.00 0.00 0.00 63 1008.2
20260505111553 12 223 4.8 12.9 0.00 0.00 0.00 64 1008.3
20260505101541 10 200 4.8 17.7 0.00 0.00 0.00 68 1008.2
20260505100049 10 213 4.8 16.1 0.00 0.00 0.00 68 1008.2
20260505094553 10 218 6.4 16.1 0.00 0.00 0.00 68 1008.2
20260505093048 11 182 6.4 14.5 0.00 0.00 0.00 66 1008.1
20260505091555 11 204 4.8 12.9 0.00 0.00 0.00 65 1008.1
20260505090052 11 198 3.2 14.5 0.00 0.00 0.00 65 1008.2
20260505084541 11 216 4.8 11.3 0.00 0.00 0.00 64 1008.3
20260505083052 11 215 4.8 12.9 0.00 0.00 0.00 64 1008.4
20260505081558 11 210 4.8 12.9 0.00 0.00 0.00 64 1008.4
20260505080049 11 220 6.4 14.5 0.00 0.00 0.00 63 1008.6
20260505074604 11 223 8.0 16.1 0.00 0.00 0.00 62 1008.5
20260505073052 11 208 11.3 19.3 0.00 0.00 0.00 61 1008.6
20260505071547 11 227 11.3 24.1 0.00 0.00 0.00 60 1008.6
20260505070047 12 221 12.9 22.5 0.00 0.00 0.00 59 1008.5
20260505064547 12 227 9.7 22.5 0.00 0.00 0.00 59 1008.5
20260505063045 12 247 9.7 20.9 0.00 0.00 0.00 58 1008.6
20260505061606 12 240 11.3 22.5 0.00 0.00 0.00 57 1008.7
20260505060046 12 202 11.3 22.5 0.00 0.00 0.00 57 1008.6
20260505054604 12 209 12.9 22.5 0.00 0.00 0.00 55 1008.6
20260505053049 12 180 12.9 25.7 0.00 0.00 0.00 55 1008.7
20260505051547 12 220 9.7 20.9 0.00 0.00 0.00 55 1008.7
20260505041541 13 232 11.3 24.1 0.00 0.00 0.00 51 1008.6
20260505040050 14 206 14.5 22.5 0.00 0.00 0.00 50 1008.5
20260505034545 14 207 9.7 27.4 0.00 0.00 0.00 49 1008.2
20260505033048 15 257 11.3 19.3 0.00 0.00 0.00 48 1008.2
20260505031541 15 211 9.7 27.4 0.00 0.00 0.00 48 1008.2
20260505030048 15 224 12.9 30.6 0.00 0.00 0.00 47 1008.1
20260505024605 15 225 11.3 27.4 0.00 0.00 0.00 46 1008.0
20260505023049 15 206 12.9 32.2 0.00 0.00 0.00 45 1007.9
20260505021602 15 225 8.0 19.3 0.00 0.00 0.00 41 1007.9
20260505020047 15 205 6.4 14.5 0.00 0.00 0.00 41 1007.7
20260505014545 15 229 6.4 12.9 0.00 0.00 0.00 40 1007.4
20260505013040 15 219 3.2 9.7 0.00 0.00 0.00 41 1007.2
20260505011554 15 224 4.8 11.3 0.00 0.00 0.00 40 1007.1
20260505010048 15 238 3.2 8.0 0.00 0.00 0.00 40 1006.9
20260505004546 16 209 4.8 8.0 0.00 0.00 0.00 38 1006.6
20260505003040 16 200 3.2 9.7 0.00 0.00 0.00 36 1006.5
20260505001541 16 187 1.6 6.4 0.00 0.00 0.00 37 1006.3
20260505000049 16 229 1.6 4.8 0.00 0.00 0.00 36 1006.1
20260504234547 17 248 1.6 6.4 0.00 0.00 0.00 34 1005.9
20260504233055 18 249 3.2 9.7 0.00 0.00 0.00 33 1005.9
20260504231541 18 0 3.2 19.3 0.00 0.00 0.00 32 1005.7
20260504230047 19 215 8.0 16.1 0.00 0.00 0.00 29 1005.3
20260504224546 19 246 8.0 14.5 0.00 0.00 0.00 30 1005.3